Location: Conflandey
(47.7287°N, 6.0456°E)
Time: 20:47:10
(UTC+00:00)

Cosmos 2100 Rocket - Pass Details

Date: 24 October 2021
Orbit: 955 x 1001 km, 82.9° (Epoch: 04 December)

Event Time Altitude Azimuth Distance (km) Brightness Sun altitude
Rises 18:18:35 0° 164° (SSE) 3,682 6.8 -18.7°
Reaches altitude 10° 18:21:11 10° 158° (SSE) 2,744 6.1 -19.1°
Maximum altitude 18:27:04 43° 89° (E) 1,365 4.3 -20.1°
Drops below altitude 10° 18:33:02 10° 20° (NNE) 2,781 6.2 -21.1°
Sets 18:35:42 0° 14° (NNE) 3,737 7.0 -21.6°
